Location: Balaclava NSW 2575, Australia
(34.4510°S, 150.4953°E)
Time: 03:26:44
(UTC+10:00)

Vanguard 1 - All Passes

Search period start: 19 June 2021 00:00
Search period end: 29 June 2021 00:00
Orbit: 650 x 3832 km, 34.2° (Epoch: 17 June)

Date Brightness Start Highest point End Pass type
(mag) Time Alt. Az. Time Alt. Az. Time Alt. Az.
19 Jun - 08:36:50 10° NNW 08:40:51 29° NE 08:46:13 10° E daylight
19 Jun - 10:54:58 10° WNW 11:00:40 83° N 11:10:56 10° E daylight
19 Jun - 13:14:19 10° W 13:22:24 82° N 13:38:04 10° ENE daylight
19 Jun - 15:34:31 10° W 15:45:37 52° NNW 16:04:43 10° NE daylight
19 Jun - 17:58:23 10° W 18:10:08 23° NW 18:25:26 10° N visible
20 Jun - 08:57:05 10° NW 09:01:28 42° NNE 09:07:44 10° E daylight
20 Jun - 11:15:48 10° W 11:21:43 89° N 11:32:31 10° E daylight
20 Jun - 13:35:13 10° W 13:43:35 75° NNW 13:59:41 10° ENE daylight
20 Jun - 15:55:46 10° W 16:06:55 43° NNW 16:25:13 10° NE daylight
20 Jun - 18:22:04 10° WNW 18:31:31 17° NW 18:42:56 10° N visible
21 Jun - 07:02:46 10° NNE 07:03:05 10° NE 07:03:25 10° NE daylight
21 Jun - 09:17:36 10° WNW 09:22:13 57° NNE 09:29:06 10° E daylight
21 Jun - 11:36:39 10° W 11:42:47 89° N 11:54:08 10° E daylight
21 Jun - 13:56:08 10° W 14:04:45 65° NNW 14:21:05 10° ENE daylight
21 Jun - 16:17:16 10° W 16:28:14 34° NNW 16:45:14 10° NNE daylight
21 Jun - 18:50:15 10° NW 18:53:01 10° NW 18:55:54 10° NNW visible
22 Jun - 07:20:42 10° N 07:23:41 17° NE 07:26:56 10° ENE daylight
22 Jun - 09:38:18 10° WNW 09:43:04 72° NNE 09:50:27 10° E daylight
22 Jun - 11:57:30 10° W 12:03:52 86° N 12:15:46 10° E daylight
22 Jun - 14:17:07 10° W 14:25:57 55° NNW 14:42:13 10° NE daylight
22 Jun - 16:39:12 10° W 16:49:36 26° NNW 17:04:38 10° NNE daylight
23 Jun - 07:40:33 10° NNW 07:44:20 27° NNE 07:48:38 10° E daylight
23 Jun - 09:59:06 10° WNW 10:03:59 83° N 10:11:49 10° E daylight
23 Jun - 12:18:21 10° W 12:24:57 79° N 12:37:22 10° ENE daylight
23 Jun - 14:38:11 10° W 14:47:10 46° NNW 15:03:01 10° NE daylight
23 Jun - 17:01:53 10° WNW 17:10:59 19° NW 17:23:08 10° N visible
24 Jun - 08:00:53 10° NW 08:05:02 40° NNE 08:10:00 10° E daylight
24 Jun - 10:19:56 10° W 10:24:58 89° N 10:33:13 10° E daylight
24 Jun - 12:39:12 10° W 12:46:01 70° NNW 12:58:49 10° ENE daylight
24 Jun - 14:59:28 10° W 15:08:25 37° NNW 15:23:23 10° NNE daylight
24 Jun - 17:26:22 10° WNW 17:32:29 13° NW 17:39:43 10° NNW visible
25 Jun - 06:04:40 10° N 06:06:21 12° NNE 06:07:58 10° NE visible
25 Jun - 08:21:28 10° WNW 08:25:49 56° NNE 08:31:14 10° E daylight
25 Jun - 10:40:47 10° W 10:45:58 89° N 10:54:40 10° E daylight
25 Jun - 13:00:06 10° W 13:07:06 59° NNW 13:20:04 10° NE daylight
25 Jun - 15:21:03 10° W 15:29:43 28° NNW 15:43:15 10° NNE daylight
26 Jun - 06:23:43 10° NNW 06:27:08 19° NNE 06:30:21 10° ENE visible
26 Jun - 08:42:14 10° WNW 08:46:39 72° NNE 08:52:25 10° E daylight
26 Jun - 11:01:38 10° W 11:06:59 84° N 11:16:07 10° ENE daylight
26 Jun - 13:21:06 10° W 13:28:13 48° NNW 13:41:04 10° NE daylight
26 Jun - 15:43:10 10° WNW 15:51:05 21° NNW 16:02:22 10° N daylight
27 Jun - 06:43:46 10° NW 06:47:54 29° NNE 06:51:50 10° E daylight
27 Jun - 09:03:05 10° W 09:07:34 84° N 09:13:37 10° E daylight
27 Jun - 11:22:29 10° W 11:27:58 75° NNW 11:37:31 10° ENE daylight
27 Jun - 13:42:13 10° W 13:49:23 38° NNW 14:01:42 10° NE daylight
27 Jun - 16:06:26 10° WNW 16:12:31 15° NNW 16:20:11 10° N daylight
28 Jun - 07:04:14 10° NW 07:08:42 42° NNE 07:13:03 10° E daylight
28 Jun - 09:23:58 10° W 09:28:30 89° N 09:34:51 10° E daylight
28 Jun - 11:43:20 10° W 11:48:58 63° NNW 11:58:47 10° ENE daylight
28 Jun - 14:03:34 10° W 14:10:35 30° NNW 14:21:53 10° NNE daylight
